This is the latest recevied weather packets stored in our database for station/object F8BMG-Wx. If no packets are shown the sender has not sent any weather packets the latest 10 day(s).
| Time | Temp. | Humidity | Pressure | Rain* | Wind** | Luminosity | Snow |
|---|---|---|---|---|---|---|---|
| 1777558274 | 19.44° C | 99% | 1017.6 hPa | 0.25 mm | - | - | - |
| 1777557962 | 20° C | 99% | 1017.6 hPa | 0.25 mm | - | - | - |
| 1777557659 | 19.44° C | 99% | 1017.6 hPa | 0.25 mm | - | - | - |
| 1777557355 | 19.44° C | 99% | 1017.6 hPa | 0.25 mm | - | - | - |
| 1777557052 | 19.44° C | 99% | 1017.5 hPa | 0.25 mm | - | - | - |
| 1777556748 | 18.89° C | 99% | 1017.6 hPa | 0.25 mm | - | - | - |
| 1777556451 | 18.33° C | 99% | 1017.6 hPa | 0 mm | - | - | - |
| 1777556138 | 18.33° C | 99% | 1017.6 hPa | 0 mm | - | - | - |
| 1777555835 | 18.33° C | 99% | 1017.6 hPa | 0 mm | - | - | - |
| 1777555531 | 18.33° C | 99% | 1017.5 hPa | 0 mm | - | - | - |
| 1777555227 | 18.33° C | 99% | 1017.4 hPa | 0 mm | - | - | - |
| 1777554924 | 18.33° C | 99% | 1017.2 hPa | 0 mm | - | - | - |
| 1777554626 | 18.89° C | 99% | 1017.3 hPa | 0 mm | - | - | - |
| 1777554314 | 18.89° C | 99% | 1017.6 hPa | 0 mm | - | - | - |
| 1777554011 | 18.89° C | 99% | 1017.7 hPa | 0 mm | - | - | - |
| 1777553707 | 19.44° C | 99% | 1017.8 hPa | 0 mm | - | - | - |
| 1777553404 | 19.44° C | 99% | 1017.8 hPa | 0 mm | - | - | - |
| 1777553100 | 19.44° C | 99% | 1017.7 hPa | 0 mm | - | - | - |
| 1777552803 | 19.44° C | 99% | 1017.6 hPa | 0 mm | - | - | - |
| 1777552490 | 18.89° C | 99% | 1017.7 hPa | 0 mm | - | - | - |
| 1777552186 | 18.89° C | 99% | 1017.7 hPa | 0 mm | - | - | - |
| 1777551584 | 18.89° C | 99% | 1017.6 hPa | 0 mm | - | - | - |
| 1777551273 | 18.89° C | 99% | 1017.5 hPa | 0 mm | - | - | - |
| 1777550975 | 18.89° C | 99% | 1017.4 hPa | 0 mm | - | - | - |
| 1777550663 | 18.89° C | 99% | 1017.4 hPa | 0 mm | - | - | - |
* Rain latest hour (hover to see other rain measurements)
** Current wind speed in m/s (hover to see current wind gust speed)